DAWOW LFRS-DTTJ

Flight info

Callsign DAWOW
Flight time N/A
Altitude 25000
Route LUGEN UM184 TUPAR/N0402F230 DCT CNA DCT SECHE/N0443F390 DCT SOVET DCT FJR DCT DIVKO DCT JUSQO DCT FIRRA DCT NAFOQ DCT SALMA UG6 DIMAO UZ147 KIRAS A856 TINAP
Aircraft E190/M-SDE1E2E3FGHIJ3J4J7P2RWXY/LB1D1G1

Departure

Time N/A
Airport Nantes Atlantique Airport (LFRS)

Arrival

Time 2026-04-24 12:26
Airport Djerba Zarzis International Airport (DTTJ)
Time Latitude Longitude Altitude Speed Heading
2026-04-24 11:53 36.35715 8.40626 39091 ft 490 kts 147°
2026-04-24 11:53 36.32877 8.42980 39099 ft 489 kts 147°
2026-04-24 11:54 36.27237 8.47648 39100 ft 489 kts 147°
2026-04-24 11:54 36.21582 8.52319 39162 ft 488 kts 147°
2026-04-24 11:55 36.15925 8.56985 39103 ft 490 kts 147°
2026-04-24 11:55 36.10275 8.61636 39103 ft 489 kts 147°
2026-04-24 11:56 36.04612 8.66290 39099 ft 490 kts 148°
2026-04-24 11:56 35.98935 8.70946 39098 ft 489 kts 148°
2026-04-24 11:57 35.93234 8.75615 39103 ft 490 kts 148°
2026-04-24 11:57 35.87587 8.80231 39101 ft 490 kts 148°
2026-04-24 11:58 35.81915 8.84860 39094 ft 478 kts 148°
2026-04-24 11:58 35.76454 8.89309 39109 ft 471 kts 148°
2026-04-24 11:59 35.70921 8.93808 38522 ft 477 kts 148°
2026-04-24 11:59 35.68174 8.96040 38012 ft 475 kts 148°
2026-04-24 11:59 35.65417 8.98277 37492 ft 475 kts 147°
2026-04-24 12:00 35.62669 9.00505 36970 ft 476 kts 148°
2026-04-24 12:00 35.59901 9.02748 36452 ft 477 kts 148°
2026-04-24 12:00 35.57143 9.04980 35977 ft 480 kts 147°
2026-04-24 12:00 35.54347 9.07214 35448 ft 482 kts 149°
2026-04-24 12:01 35.51496 9.09370 34920 ft 483 kts 149°
2026-04-24 12:01 35.48641 9.11532 34383 ft 483 kts 149°
2026-04-24 12:01 35.45757 9.13714 33820 ft 484 kts 149°
2026-04-24 12:01 35.42907 9.15868 33287 ft 486 kts 149°
2026-04-24 12:02 35.40016 9.18051 32746 ft 488 kts 149°
2026-04-24 12:02 35.37117 9.20239 32202 ft 489 kts 149°
2026-04-24 12:02 35.34249 9.22401 31666 ft 488 kts 149°
2026-04-24 12:02 35.31362 9.24576 31125 ft 489 kts 149°
2026-04-24 12:03 35.28453 9.26766 30580 ft 487 kts 149°
2026-04-24 12:03 35.25617 9.28899 30045 ft 482 kts 149°
2026-04-24 12:03 35.22765 9.31042 29511 ft 478 kts 149°
2026-04-24 12:03 35.19937 9.33165 28982 ft 474 kts 149°
2026-04-24 12:04 35.17158 9.35249 28467 ft 470 kts 149°
2026-04-24 12:04 35.14379 9.37332 27949 ft 467 kts 149°
2026-04-24 12:04 35.11641 9.39383 27439 ft 463 kts 148°
2026-04-24 12:04 35.08910 9.41427 26932 ft 458 kts 148°
2026-04-24 12:05 35.06207 9.43448 26427 ft 455 kts 148°
2026-04-24 12:05 35.03501 9.45470 25923 ft 451 kts 149°
2026-04-24 12:05 35.00850 9.47449 25430 ft 448 kts 148°
2026-04-24 12:05 34.98210 9.49419 24938 ft 445 kts 148°
2026-04-24 12:06 34.95555 9.51399 24438 ft 442 kts 148°
2026-04-24 12:06 34.92962 9.53330 23954 ft 437 kts 148°
2026-04-24 12:06 34.90377 9.55254 23474 ft 434 kts 148°
2026-04-24 12:06 34.87797 9.57173 22987 ft 431 kts 148°
2026-04-24 12:07 34.85248 9.59067 22511 ft 427 kts 148°
2026-04-24 12:07 34.82746 9.60925 22046 ft 423 kts 148°
2026-04-24 12:07 34.80223 9.62798 21566 ft 420 kts 148°
2026-04-24 12:07 34.77755 9.64627 21103 ft 416 kts 147°
2026-04-24 12:08 34.75314 9.66436 20618 ft 412 kts 148°
2026-04-24 12:08 34.72870 9.68246 20200 ft 409 kts 148°
2026-04-24 12:08 34.70451 9.70038 19745 ft 405 kts 148°
2026-04-24 12:08 34.68057 9.71808 19288 ft 402 kts 148°
2026-04-24 12:09 34.65696 9.73553 18846 ft 398 kts 148°
2026-04-24 12:09 34.63332 9.75299 18411 ft 394 kts 148°
2026-04-24 12:09 34.61021 9.77004 17980 ft 391 kts 148°
2026-04-24 12:09 34.58705 9.78713 17552 ft 388 kts 148°
2026-04-24 12:10 34.56389 9.80420 17116 ft 387 kts 148°
2026-04-24 12:10 34.54100 9.82106 16692 ft 386 kts 148°
2026-04-24 12:10 34.51803 9.83797 16260 ft 384 kts 148°
2026-04-24 12:11 34.47272 9.87129 15427 ft 382 kts 148°
2026-04-24 12:11 34.44995 9.88802 14997 ft 380 kts 148°
2026-04-24 12:11 34.42766 9.90439 14580 ft 377 kts 148°
2026-04-24 12:11 34.40617 9.92238 14150 ft 373 kts 133°
2026-04-24 12:12 34.38992 9.94659 13765 ft 369 kts 124°
2026-04-24 12:12 34.36966 9.97953 13776 ft 366 kts 124°
2026-04-24 12:12 34.35957 9.99593 13764 ft 367 kts 124°
2026-04-24 12:12 34.34426 10.02081 13784 ft 368 kts 124°
2026-04-24 12:13 34.32903 10.04555 13799 ft 368 kts 124°
2026-04-24 12:13 34.31379 10.07028 13795 ft 369 kts 124°
2026-04-24 12:13 34.29841 10.09523 13796 ft 368 kts 124°
2026-04-24 12:13 34.28313 10.12000 13556 ft 369 kts 124°
2026-04-24 12:14 34.26789 10.14467 13185 ft 367 kts 123°
2026-04-24 12:14 34.25269 10.16926 12761 ft 365 kts 124°
2026-04-24 12:14 34.23754 10.19376 12379 ft 362 kts 124°
2026-04-24 12:14 34.22255 10.21798 11979 ft 360 kts 124°
2026-04-24 12:15 34.20756 10.24217 11588 ft 355 kts 124°
2026-04-24 12:15 34.19294 10.26574 11202 ft 348 kts 124°
2026-04-24 12:15 34.17860 10.28888 10801 ft 340 kts 124°
2026-04-24 12:15 34.16465 10.31135 10432 ft 331 kts 124°
2026-04-24 12:16 34.15093 10.33344 10070 ft 324 kts 124°
2026-04-24 12:16 34.13762 10.35486 9720 ft 319 kts 124°
2026-04-24 12:16 34.12427 10.37633 9384 ft 316 kts 124°
2026-04-24 12:16 34.11131 10.39718 9037 ft 313 kts 124°
2026-04-24 12:17 34.09824 10.41818 8684 ft 311 kts 124°
2026-04-24 12:17 34.08529 10.43898 8351 ft 309 kts 124°
2026-04-24 12:17 34.07241 10.45965 8002 ft 305 kts 124°
2026-04-24 12:17 34.05980 10.47988 7686 ft 303 kts 124°
2026-04-24 12:18 34.04714 10.50017 7334 ft 301 kts 124°
2026-04-24 12:18 34.03469 10.52012 7003 ft 298 kts 124°
2026-04-24 12:18 34.02236 10.53987 6695 ft 294 kts 124°
2026-04-24 12:18 34.00722 10.55627 6357 ft 294 kts 154°
2026-04-24 12:19 33.98739 10.56111 6001 ft 290 kts 183°
2026-04-24 12:19 33.96737 10.55958 5662 ft 288 kts 185°
2026-04-24 12:19 33.94764 10.55785 5341 ft 285 kts 185°
2026-04-24 12:19 33.92777 10.55605 5019 ft 283 kts 184°
2026-04-24 12:20 33.90819 10.55427 4700 ft 281 kts 183°
2026-04-24 12:20 33.88898 10.55360 4612 ft 278 kts 181°
2026-04-24 12:20 33.86919 10.55263 3907 ft 287 kts 178°
2026-04-24 12:20 33.85433 10.56281 3266 ft 257 kts 77°
2026-04-24 12:21 33.86251 10.58304 2541 ft 275 kts 52°
2026-04-24 12:21 33.87109 10.59752 2454 ft 251 kts 65°
2026-04-24 12:22 33.86982 10.61138 2387 ft 211 kts 98°
2026-04-24 12:22 33.87065 10.62791 1981 ft 191 kts 80°
2026-04-24 12:22 33.87238 10.64329 1796 ft 175 kts 84°
2026-04-24 12:23 33.87215 10.65735 1497 ft 158 kts 88°
2026-04-24 12:23 33.87252 10.66956 1432 ft 143 kts 86°
2026-04-24 12:23 33.87287 10.68125 1191 ft 137 kts 86°
2026-04-24 12:23 33.87296 10.69262 1010 ft 134 kts 86°
2026-04-24 12:24 33.87337 10.70371 898 ft 132 kts 84°
2026-04-24 12:24 33.87371 10.71495 768 ft 136 kts 88°
2026-04-24 12:24 33.87399 10.72625 640 ft 132 kts 85°
2026-04-24 12:24 33.87418 10.73669 427 ft 121 kts 85°
2026-04-24 12:25 33.87460 10.74667 232 ft 118 kts 85°
2026-04-24 12:25 33.87486 10.75647 95 ft 117 kts 84°
2026-04-24 12:25 33.87512 10.76609 15 ft 108 kts 85°
2026-04-24 12:25 33.87538 10.77293 19 ft 57 kts 91°
2026-04-24 12:26 33.87542 10.77601 20 ft 23 kts 87°
2026-04-24 12:26 33.87454 10.77721 22 ft 22 kts 174°
2026-04-24 12:26 33.87407 10.77727 23 ft 0 kts 175°
2026-04-24 12:26 33.87405 10.77726 23 ft 0 kts 197°
2026-04-24 12:27 33.87394 10.77710 23 ft 3 kts 246°
2026-04-24 12:27 33.87389 10.77676 23 ft 3 kts 268°
2026-04-24 12:27 33.87388 10.77646 23 ft 6 kts 268°
2026-04-24 12:27 33.87386 10.77549 21 ft 16 kts 269°
2026-04-24 12:28 33.87383 10.77366 20 ft 25 kts 267°
2026-04-24 12:28 33.87283 10.77252 18 ft 15 kts 173°
2026-04-24 12:28 33.87226 10.77310 18 ft 10 kts 140°
2026-04-24 12:28 33.87204 10.77332 18 ft 0 kts 140°
2026-04-24 12:29 33.87111 10.77341 77 ft 0 kts 295°
2026-04-24 12:30 33.87109 10.77336 77 ft 0 kts 314°
2026-04-24 12:30 33.87116 10.77332 77 ft 0 kts 314°
2026-04-24 12:31 33.87117 10.77332 69 ft 0 kts 193°
2026-04-24 12:31 33.87118 10.77332 68 ft 0 kts 227°